KI5IZM-13 Weather Reports


Display with metric or nautical units.
time (UTC)temp
F
wind
direction
speed
MPH
gust
MPH
rain 1hr
in
rain 24hr
in
rain mn
in
humidity
%
barometer
mb
20240521110012 74 194 3.0 6.0 0.00 0.00 0.00 90 1009.9
20240521104513 74 209 1.0 8.0 0.00 0.00 0.00 90 1009.9
20240521103004 74 123 1.0 4.0 0.00 0.00 0.00 90 1009.8
20240521101508 73 168 2.0 6.0 0.00 0.00 0.00 90 1009.8
20240521100011 73 120 1.0 7.0 0.00 0.00 0.00 89 1010.0
20240521094510 73 99 1.0 3.0 0.00 0.00 0.00 89 1009.6
20240521093010 74 132 1.0 6.0 0.00 0.00 0.00 89 1009.7
20240521091515 74 145 1.0 7.0 0.00 0.00 0.00 88 1009.7
20240521090006 74 190 2.0 7.0 0.00 0.00 0.00 88 1009.7
20240521084510 73 137 0.0 9.0 0.00 0.00 0.00 89 1010.0
20240521083010 73 230 3.0 9.0 0.00 0.00 0.00 88 1009.8
20240521081517 73 154 4.0 9.0 0.00 0.00 0.00 88 1009.9
20240521080017 73 94 1.0 7.0 0.00 0.00 0.00 88 1010.1
20240521074520 74 238 2.0 13.0 0.00 0.00 0.00 87 1010.0
20240521073010 74 100 3.0 7.0 0.00 0.00 0.00 86 1010.0
20240521071517 74 238 2.0 7.0 0.00 0.00 0.00 85 1010.1
20240521070005 74 148 1.0 12.0 0.00 0.00 0.00 84 1010.4
20240521064512 74 116 1.0 6.0 0.00 0.00 0.00 83 1010.4
20240521063008 74 117 1.0 6.0 0.00 0.00 0.00 82 1010.8
20240521061519 74 132 1.0 11.0 0.00 0.00 0.00 82 1010.8
20240521060005 74 140 2.0 10.0 0.00 0.00 0.00 82 1010.8
20240521054510 74 144 2.0 5.0 0.00 0.00 0.00 81 1010.9
20240521053010 74 150 2.0 6.0 0.00 0.00 0.00 80 1010.8
20240521051510 74 172 1.0 5.0 0.00 0.00 0.00 79 1010.8
20240521050012 74 150 0.0 3.0 0.00 0.00 0.00 79 1010.7
20240521044505 75 163 1.0 3.0 0.00 0.00 0.00 77 1011.0
20240521043007 75 121 1.0 3.0 0.00 0.00 0.00 76 1011.3
20240521041509 75 137 0.0 1.0 0.00 0.00 0.00 75 1011.0
20240521040013 76 119 0.0 4.0 0.00 0.00 0.00 75 1010.9
20240521034504 76 107 1.0 3.0 0.00 0.00 0.00 75 1010.8
20240521033004 77 102 0.0 3.0 0.00 0.00 0.00 74 1011.0
20240521031508 77 148 1.0 4.0 0.00 0.00 0.00 72 1010.8
20240521030010 77 108 1.0 4.0 0.00 0.00 0.00 71 1010.8
20240521024517 77 117 1.0 2.0 0.00 0.00 0.00 71 1010.6
20240521023005 77 115 0.0 3.0 0.00 0.00 0.00 71 1010.3
20240521021505 78 121 0.0 1.0 0.00 0.00 0.00 71 1010.2
20240521020010 78 146 0.0 1.0 0.00 0.00 0.00 71 1010.0
20240521014513 78 98 0.0 1.0 0.00 0.00 0.00 70 1010.1
20240521013014 80 80 0.0 2.0 0.00 0.00 0.00 68 1010.2
20240521011506 81 105 0.0 0.0 0.00 0.00 0.00 66 1010.2
20240521010007 83 105 0.0 3.0 0.00 0.00 0.00 61 1010.2
20240521004509 84 128 1.0 7.0 0.00 0.00 0.00 57 1010.2
20240521003011 85 117 2.0 7.0 0.00 0.00 0.00 56 1010.0
20240521001505 85 146 3.0 8.0 0.00 0.00 0.00 54 1010.0
20240521000006 86 147 3.0 8.0 0.00 0.00 0.00 52 1010.0
20240520234510 87 117 3.0 9.0 0.00 0.00 0.00 52 1009.9
20240520233007 88 84 3.0 9.0 0.00 0.00 0.00 50 1010.0
20240520231513 88 153 4.0 10.0 0.00 0.00 0.00 50 1010.0
20240520230012 88 155 4.0 12.0 0.00 0.00 0.00 49 1009.9
20240520224515 88 77 4.0 12.0 0.00 0.00 0.00 51 1010.0
20240520223012 89 141 4.0 10.0 0.00 0.00 0.00 50 1009.9
20240520221518 88 193 4.0 10.0 0.00 0.00 0.00 52 1010.0
20240520220008 89 122 4.0 11.0 0.00 0.00 0.00 51 1010.2
20240520214508 89 135 1.0 12.0 0.00 0.00 0.00 50 1010.3
20240520213014 89 95 3.0 9.0 0.00 0.00 0.00 51 1010.4
20240520210012 89 87 6.0 12.0 0.00 0.00 0.00 50 1010.7
20240520204505 88 127 5.0 15.0 0.00 0.00 0.00 50 1011.1
20240520203008 89 171 5.0 12.0 0.00 0.00 0.00 48 1011.3
20240520201510 89 122 4.0 12.0 0.00 0.00 0.00 49 1011.5
20240520200019 89 137 4.0 12.0 0.00 0.00 0.00 50 1011.7
20240520194513 88 163 5.0 12.0 0.00 0.00 0.00 50 1011.9
20240520193004 88 118 6.0 15.0 0.00 0.00 0.00 51 1011.8
20240520191511 88 144 4.0 13.0 0.00 0.00 0.00 50 1012.1
20240520190008 88 114 5.0 14.0 0.00 0.00 0.00 52 1012.3
20240520184512 87 89 5.0 16.0 0.00 0.00 0.00 52 1012.4
20240520183005 88 302 4.0 13.0 0.00 0.00 0.00 52 1012.7
20240520181516 87 121 6.0 12.0 0.00 0.00 0.00 49 1013.1
20240520180013 87 178 2.0 9.0 0.00 0.00 0.00 52 1013.3
20240520174520 86 123 4.0 14.0 0.00 0.00 0.00 54 1013.3
20240520173005 87 120 3.0 11.0 0.00 0.00 0.00 54 1013.5
20240520171506 86 137 3.0 12.0 0.00 0.00 0.00 54 1013.6
20240520170008 86 115 4.0 9.0 0.00 0.00 0.00 56 1013.9
20240520164512 85 75 4.0 12.0 0.00 0.00 0.00 58 1013.9
20240520163009 85 232 4.0 11.0 0.00 0.00 0.00 60 1014.0
20240520161505 84 198 4.0 10.0 0.00 0.00 0.00 61 1014.1
20240520160006 84 34 1.0 9.0 0.00 0.00 0.00 64 1013.8
20240520154521 83 121 2.0 9.0 0.00 0.00 0.00 66 1013.9
20240520153011 82 352 2.0 10.0 0.00 0.00 0.00 64 1013.9
20240520151505 81 254 1.0 7.0 0.00 0.00 0.00 67 1014.2
20240520150006 80 155 2.0 6.0 0.00 0.00 0.00 69 1014.2
20240520144510 79 126 2.0 6.0 0.00 0.00 0.00 70 1014.2
20240520143009 78 94 2.0 7.0 0.00 0.00 0.00 71 1014.3
20240520141525 77 175 2.0 4.0 0.00 0.00 0.00 74 1014.2
20240520140006 77 121 1.0 6.0 0.00 0.00 0.00 78 1013.9
20240520134506 75 147 1.0 3.0 0.00 0.00 0.00 81 1013.9
20240520133010 72 112 0.0 1.0 0.00 0.00 0.00 88 1014.0
20240520131513 71 114 0.0 0.0 0.00 0.00 0.00 92 1013.7
20240520130013 69 114 0.0 0.0 0.00 0.00 0.00 94 1013.6
20240520124507 68 114 0.0 0.0 0.00 0.00 0.00 95 1013.3
20240520123005 67 114 0.0 0.0 0.00 0.00 0.00 95 1013.4
20240520121509 67 114 0.0 0.0 0.00 0.00 0.00 95 1013.5
20240520120009 66 114 0.0 0.0 0.00 0.00 0.00 94 1013.5
20240520114506 67 114 0.0 0.0 0.00 0.00 0.00 94 1013.5
20240520113005 67 114 0.0 0.0 0.00 0.00 0.00 94 1013.1
20240520111508 67 114 0.0 0.0 0.00 0.00 0.00 93 1012.0